Time,TemperatureF,DewpointF,PressureIn,WindDirection,WindDirectionDegrees,WindSpeedMPH,WindSpeedGustMPH,Humidity,HourlyPrecipIn,Conditions,Clouds,dailyrainin,SoftwareType,DateUTC
2013-04-16 00:05:00,70.2,38.2,29.81,WNW,293,4.0,6.3,31,0.00,,,0.00,WUHU216HW,2013-04-16 07:05:00,
2013-04-16 00:15:00,70.0,38.7,29.81,NNW,338,2.9,4.5,32,0.00,,,0.00,WUHU216HW,2013-04-16 07:15:00,
2013-04-16 00:25:00,69.8,38.5,29.81,NW,315,1.1,4.5,32,0.00,,,0.00,WUHU216HW,2013-04-16 07:25:00,
2013-04-16 00:35:00,69.8,38.5,29.81,WNW,293,1.3,6.5,32,0.00,,,0.00,WUHU216HW,2013-04-16 07:35:00,
2013-04-16 00:45:00,69.5,39.7,29.82,NNE,23,2.9,4.7,34,0.00,,,0.00,WUHU216HW,2013-04-16 07:45:00,
2013-04-16 00:55:00,69.3,38.8,29.81,SE,135,1.8,6.9,33,0.00,,,0.00,WUHU216HW,2013-04-16 07:55:00,
2013-04-16 01:05:00,69.1,38.6,29.81,NW,315,1.3,5.1,33,0.00,,,0.00,WUHU216HW,2013-04-16 08:05:00,
2013-04-16 01:15:00,68.8,39.1,29.81,NNW,338,2.5,4.7,34,0.00,,,0.00,WUHU216HW,2013-04-16 08:15:00,
2013-04-16 01:25:00,68.4,38.7,29.81,NW,315,3.1,3.1,34,0.00,,,0.00,WUHU216HW,2013-04-16 08:25:00,
2013-04-16 01:35:00,68.0,38.4,29.81,NNW,338,1.6,2.5,34,0.00,,,0.00,WUHU216HW,2013-04-16 08:35:00,
2013-04-16 01:45:00,67.7,38.9,29.82,NNW,338,2.5,4.0,35,0.00,,,0.00,WUHU216HW,2013-04-16 08:45:00,
2013-04-16 01:56:00,67.3,38.5,29.82,NNW,338,1.8,3.4,35,0.00,,,0.00,WUHU216HW,2013-04-16 08:56:00,
2013-04-16 02:06:00,67.3,39.2,29.82,NW,315,0.9,4.0,36,0.00,,,0.00,WUHU216HW,2013-04-16 09:06:00,
2013-04-16 02:16:00,67.0,39.0,29.81,NNW,338,0.7,4.0,36,0.00,,,0.00,WUHU216HW,2013-04-16 09:16:00,
2013-04-16 02:26:00,66.6,39.3,29.82,NNW,338,2.5,4.7,37,0.00,,,0.00,WUHU216HW,2013-04-16 09:26:00,
2013-04-16 02:36:00,66.8,38.8,29.82,NW,315,0.7,2.7,36,0.00,,,0.00,WUHU216HW,2013-04-16 09:36:00,
2013-04-16 02:46:00,66.6,38.6,29.82,WNW,293,2.0,2.0,36,0.00,,,0.00,WUHU216HW,2013-04-16 09:46:00,
2013-04-16 02:56:00,66.6,39.3,29.82,NNE,23,2.2,3.4,37,0.00,,,0.00,WUHU216HW,2013-04-16 09:56:00,
2013-04-16 03:06:00,66.4,38.5,29.82,NNW,338,0.4,2.5,36,0.00,,,0.00,WUHU216HW,2013-04-16 10:06:00,
2013-04-16 03:16:00,65.7,37.9,29.82,ENE,68,0.9,1.8,36,0.00,,,0.00,WUHU216HW,2013-04-16 10:16:00,
2013-04-16 03:26:00,64.8,37.1,29.82,NE,45,2.5,2.5,36,0.00,,,0.00,WUHU216HW,2013-04-16 10:26:00,
2013-04-16 03:36:00,64.6,36.9,29.82,NNE,23,0.4,3.1,36,0.00,,,0.00,WUHU216HW,2013-04-16 10:36:00,
2013-04-16 03:46:00,64.6,35.5,29.82,NNE,23,1.1,3.4,34,0.00,,,0.00,WUHU216HW,2013-04-16 10:46:00,
2013-04-16 03:56:00,64.3,35.1,29.82,NNE,23,1.3,1.6,34,0.00,,,0.00,WUHU216HW,2013-04-16 10:56:00,
2013-04-16 04:07:00,63.5,35.9,29.81,NNW,338,2.2,2.2,36,0.00,,,0.00,WUHU216HW,2013-04-16 11:07:00,
2013-04-16 04:17:00,63.0,34.8,29.82,NNE,23,3.4,5.1,35,0.00,,,0.00,WUHU216HW,2013-04-16 11:17:00,
2013-04-16 04:27:00,63.0,34.8,29.82,NNE,23,0.2,2.7,35,0.00,,,0.00,WUHU216HW,2013-04-16 11:27:00,
2013-04-16 04:37:00,62.3,34.7,29.81,NW,315,0.0,1.8,36,0.00,,,0.00,WUHU216HW,2013-04-16 11:37:00,
2013-04-16 04:47:00,61.4,33.9,29.81,South,180,0.7,1.3,36,0.00,,,0.00,WUHU216HW,2013-04-16 11:47:00,
2013-04-16 04:57:00,60.7,34.0,29.81,ESE,113,0.4,2.9,37,0.00,,,0.00,WUHU216HW,2013-04-16 11:57:00,
2013-04-16 05:07:00,59.9,34.1,29.82,ESE,113,0.7,1.3,38,0.00,,,0.00,WUHU216HW,2013-04-16 12:07:00,
2013-04-16 05:17:00,59.0,34.0,29.82,SE,135,1.8,2.9,39,0.00,,,0.00,WUHU216HW,2013-04-16 12:17:00,
2013-04-16 05:27:00,58.5,34.8,29.82,SE,135,1.1,2.5,41,0.00,,,0.00,WUHU216HW,2013-04-16 12:27:00,
2013-04-16 05:37:00,58.0,34.4,29.82,NW,315,1.1,1.8,41,0.00,,,0.00,WUHU216HW,2013-04-16 12:37:00,
2013-04-16 05:47:00,57.2,34.3,29.82,SE,135,1.1,2.0,42,0.00,,,0.00,WUHU216HW,2013-04-16 12:47:00,
2013-04-16 05:57:00,56.9,34.5,29.82,SSW,203,1.1,1.1,43,0.00,,,0.00,WUHU216HW,2013-04-16 12:57:00,
2013-04-16 06:07:00,56.7,33.8,29.82,WSW,248,1.1,2.0,42,0.00,,,0.00,WUHU216HW,2013-04-16 13:07:00,
2013-04-16 06:17:00,56.9,33.9,29.83,North,0,0.4,1.3,42,0.00,,,0.00,WUHU216HW,2013-04-16 13:17:00,
2013-04-16 06:27:00,57.2,33.7,29.83,WNW,293,0.2,3.6,41,0.00,,,0.00,WUHU216HW,2013-04-16 13:27:00,
2013-04-16 06:37:00,58.1,33.9,29.84,NNE,23,1.3,1.8,40,0.00,,,0.00,WUHU216HW,2013-04-16 13:37:00,
2013-04-16 06:47:00,59.2,34.2,29.84,NNE,23,1.1,2.9,39,0.00,,,0.00,WUHU216HW,2013-04-16 13:47:00,
2013-04-16 06:57:00,60.3,34.5,29.84,NNE,23,0.4,1.6,38,0.00,,,0.00,WUHU216HW,2013-04-16 13:57:00,
2013-04-16 07:08:00,61.6,34.8,29.85,West,270,1.1,1.1,37,0.00,,,0.00,WUHU216HW,2013-04-16 14:08:00,
2013-04-16 07:18:00,63.0,35.5,29.85,NW,315,1.8,3.1,36,0.00,,,0.00,WUHU216HW,2013-04-16 14:18:00,
2013-04-16 07:28:00,64.8,33.5,29.85,NNE,23,3.6,4.5,31,0.00,,,0.00,WUHU216HW,2013-04-16 14:28:00,
2013-04-16 07:38:00,66.2,34.7,29.85,ENE,68,0.0,4.0,31,0.00,,,0.00,WUHU216HW,2013-04-16 14:38:00,
2013-04-16 07:48:00,67.3,33.9,29.85,NNW,338,3.6,4.3,29,0.00,,,0.00,WUHU216HW,2013-04-16 14:48:00,
2013-04-16 07:58:00,68.0,33.5,29.86,NNE,23,1.3,3.4,28,0.00,,,0.00,WUHU216HW,2013-04-16 14:58:00,
2013-04-16 08:08:00,68.8,34.1,29.86,WSW,248,0.9,3.4,28,0.00,,,0.00,WUHU216HW,2013-04-16 15:08:00,
2013-04-16 08:18:00,69.8,33.0,29.86,NW,315,1.3,3.4,26,0.00,,,0.00,WUHU216HW,2013-04-16 15:18:00,
2013-04-16 08:28:00,70.2,32.3,29.86,NW,315,2.2,6.3,25,0.00,,,0.00,WUHU216HW,2013-04-16 15:28:00,
2013-04-16 08:38:00,70.9,32.9,29.86,West,270,3.6,4.0,25,0.00,,,0.00,WUHU216HW,2013-04-16 15:38:00,
2013-04-16 08:48:00,72.0,32.9,29.86,NNW,338,7.2,7.2,24,0.00,,,0.00,WUHU216HW,2013-04-16 15:48:00,
2013-04-16 08:58:00,72.9,32.6,29.86,West,270,4.7,7.6,23,0.00,,,0.00,WUHU216HW,2013-04-16 15:58:00,
2013-04-16 09:08:00,74.0,32.5,29.86,WSW,248,4.7,8.7,22,0.00,,,0.00,WUHU216HW,2013-04-16 16:08:00,
2013-04-16 09:18:00,74.5,32.9,29.86,West,270,8.1,8.9,22,0.00,,,0.00,WUHU216HW,2013-04-16 16:18:00,
2013-04-16 09:28:00,75.2,34.6,29.85,NW,315,4.7,6.5,23,0.00,,,0.00,WUHU216HW,2013-04-16 16:28:00,
2013-04-16 09:38:00,75.4,33.7,29.86,NW,315,5.4,8.1,22,0.00,,,0.00,WUHU216HW,2013-04-16 16:38:00,
2013-04-16 09:48:00,76.0,33.1,29.85,WNW,293,11.0,11.2,21,0.00,,,0.00,WUHU216HW,2013-04-16 16:48:00,
2013-04-16 09:58:00,76.7,33.7,29.85,West,270,6.3,8.7,21,0.00,,,0.00,WUHU216HW,2013-04-16 16:58:00,
2013-04-16 10:09:00,77.0,34.0,29.85,WNW,293,4.7,9.8,21,0.00,,,0.00,WUHU216HW,2013-04-16 17:09:00,
2013-04-16 10:19:00,77.8,34.6,29.85,WSW,248,5.4,6.5,21,0.00,,,0.00,WUHU216HW,2013-04-16 17:19:00,
2013-04-16 10:29:00,78.1,32.1,29.84,NNE,23,3.4,12.1,19,0.00,,,0.00,WUHU216HW,2013-04-16 17:29:00,
2013-04-16 10:39:00,78.7,32.6,29.84,West,270,4.5,10.1,19,0.00,,,0.00,WUHU216HW,2013-04-16 17:39:00,
2013-04-16 10:49:00,79.0,31.2,29.84,WNW,293,10.5,11.9,18,0.00,,,0.00,WUHU216HW,2013-04-16 17:49:00,
2013-04-16 10:59:00,79.7,31.9,29.83,West,270,9.8,10.1,18,0.00,,,0.00,WUHU216HW,2013-04-16 17:59:00,
2013-04-16 11:09:00,79.9,30.3,29.83,West,270,8.9,12.8,17,0.00,,,0.00,WUHU216HW,2013-04-16 18:09:00,
2013-04-16 11:19:00,80.6,29.3,29.83,SW,225,13.4,13.4,16,0.00,,,0.00,WUHU216HW,2013-04-16 18:19:00,
2013-04-16 11:29:00,80.8,27.7,29.83,WNW,293,9.2,14.5,15,0.00,,,0.00,WUHU216HW,2013-04-16 18:29:00,
2013-04-16 11:39:00,81.2,28.0,29.82,NW,315,8.9,11.6,15,0.00,,,0.00,WUHU216HW,2013-04-16 18:39:00,
2013-04-16 11:49:00,81.4,28.1,29.82,WSW,248,3.8,11.2,15,0.00,,,0.00,WUHU216HW,2013-04-16 18:49:00,
2013-04-16 11:59:00,81.7,30.1,29.82,WNW,293,10.3,10.3,16,0.00,,,0.00,WUHU216HW,2013-04-16 18:59:00,
2013-04-16 12:09:00,82.4,30.7,29.82,West,270,7.6,13.4,16,0.00,,,0.00,WUHU216HW,2013-04-16 19:09:00,
2013-04-16 12:19:00,82.6,30.8,29.81,West,270,7.4,14.3,16,0.00,,,0.00,WUHU216HW,2013-04-16 19:19:00,
2013-04-16 12:29:00,83.0,29.4,29.81,WSW,248,5.4,9.8,15,0.00,,,0.00,WUHU216HW,2013-04-16 19:29:00,
2013-04-16 12:39:00,83.0,29.4,29.81,NW,315,8.9,9.8,15,0.00,,,0.00,WUHU216HW,2013-04-16 19:39:00,
2013-04-16 12:49:00,83.3,29.6,29.80,WSW,248,3.4,10.3,15,0.00,,,0.00,WUHU216HW,2013-04-16 19:49:00,
2013-04-16 12:59:00,83.9,28.4,29.79,NNW,338,9.8,12.8,14,0.00,,,0.00,WUHU216HW,2013-04-16 19:59:00,
2013-04-16 13:09:00,84.1,30.2,29.79,WSW,248,9.2,9.8,15,0.00,,,0.00,WUHU216HW,2013-04-16 20:09:00,
2013-04-16 13:19:00,84.8,27.4,29.79,West,270,4.0,8.5,13,0.00,,,0.00,WUHU216HW,2013-04-16 20:19:00,
2013-04-16 13:30:00,84.8,27.4,29.78,WNW,293,11.0,11.0,13,0.00,,,0.00,WUHU216HW,2013-04-16 20:30:00,
2013-04-16 13:40:00,85.5,27.9,29.78,NNW,338,5.4,16.1,13,0.00,,,0.00,WUHU216HW,2013-04-16 20:40:00,
2013-04-16 13:50:00,85.7,28.1,29.78,WNW,293,10.3,14.5,13,0.00,,,0.00,WUHU216HW,2013-04-16 20:50:00,
2013-04-16 14:00:00,85.5,27.9,29.77,West,270,11.4,16.3,13,0.00,,,0.00,WUHU216HW,2013-04-16 21:00:00,
2013-04-16 14:10:00,85.3,27.8,29.77,West,270,7.6,10.5,13,0.00,,,0.00,WUHU216HW,2013-04-16 21:10:00,
2013-04-16 14:20:00,85.7,28.1,29.77,NW,315,10.5,11.6,13,0.00,,,0.00,WUHU216HW,2013-04-16 21:20:00,
2013-04-16 14:30:00,85.7,31.5,29.77,WSW,248,7.4,10.1,15,0.00,,,0.00,WUHU216HW,2013-04-16 21:30:00,
2013-04-16 14:40:00,85.7,31.5,29.77,West,270,9.2,15.2,15,0.00,,,0.00,WUHU216HW,2013-04-16 21:40:00,
2013-04-16 14:50:00,85.7,31.5,29.77,WNW,293,9.6,11.9,15,0.00,,,0.00,WUHU216HW,2013-04-16 21:50:00,
2013-04-16 15:00:00,85.7,33.2,29.76,West,270,5.8,15.9,16,0.00,,,0.00,WUHU216HW,2013-04-16 22:00:00,
2013-04-16 15:10:00,85.9,31.6,29.76,NW,315,3.6,10.5,15,0.00,,,0.00,WUHU216HW,2013-04-16 22:10:00,
2013-04-16 15:20:00,86.0,30.1,29.75,WNW,293,13.4,16.3,14,0.00,,,0.00,WUHU216HW,2013-04-16 22:20:00,
2013-04-16 15:30:00,86.0,28.4,29.75,WSW,248,8.5,12.8,13,0.00,,,0.00,WUHU216HW,2013-04-16 22:30:00,
2013-04-16 15:40:00,86.0,28.4,29.75,West,270,12.3,12.5,13,0.00,,,0.00,WUHU216HW,2013-04-16 22:40:00,
2013-04-16 15:50:00,85.9,28.2,29.75,NW,315,10.5,11.9,13,0.00,,,0.00,WUHU216HW,2013-04-16 22:50:00,
2013-04-16 16:00:00,85.7,28.1,29.75,NW,315,2.5,15.9,13,0.00,,,0.00,WUHU216HW,2013-04-16 23:00:00,
2013-04-16 16:11:00,85.3,27.8,29.75,WNW,293,7.6,12.1,13,0.00,,,0.00,WUHU216HW,2013-04-16 23:11:00,
2013-04-16 16:21:00,85.1,27.6,29.75,WSW,248,15.4,15.4,13,0.00,,,0.00,WUHU216HW,2013-04-16 23:21:00,
2013-04-16 16:31:00,85.0,30.9,29.74,NW,315,8.7,12.1,15,0.00,,,0.00,WUHU216HW,2013-04-16 23:31:00,
2013-04-16 16:41:00,84.8,30.8,29.74,WNW,293,6.3,12.1,15,0.00,,,0.00,WUHU216HW,2013-04-16 23:41:00,
2013-04-16 16:51:00,84.8,30.8,29.74,NW,315,6.3,8.7,15,0.00,,,0.00,WUHU216HW,2013-04-16 23:51:00,
2013-04-16 17:01:00,84.2,30.3,29.75,WNW,293,5.4,13.0,15,0.00,,,0.00,WUHU216HW,2013-04-17 00:01:00,
2013-04-16 17:11:00,84.1,30.2,29.75,West,270,7.2,11.0,15,0.00,,,0.00,WUHU216HW,2013-04-17 00:11:00,
2013-04-16 17:21:00,83.9,30.1,29.75,West,270,6.3,10.7,15,0.00,,,0.00,WUHU216HW,2013-04-17 00:21:00,
2013-04-16 17:31:00,83.3,29.6,29.75,West,270,8.1,12.1,15,0.00,,,0.00,WUHU216HW,2013-04-17 00:31:00,
2013-04-16 17:41:00,82.6,30.8,29.75,West,270,6.0,12.8,16,0.00,,,0.00,WUHU216HW,2013-04-17 00:41:00,
2013-04-16 17:51:00,82.1,32.0,29.75,WSW,248,12.1,12.8,17,0.00,,,0.00,WUHU216HW,2013-04-17 00:51:00,
2013-04-16 18:01:00,81.5,31.7,29.75,SW,225,10.5,10.5,17,0.00,,,0.00,WUHU216HW,2013-04-17 01:01:00,
2013-04-16 18:11:00,81.0,33.0,29.75,WNW,293,8.7,11.4,18,0.00,,,0.00,WUHU216HW,2013-04-17 01:11:00,
2013-04-16 18:22:00,80.6,32.6,29.75,West,270,10.5,10.5,18,0.00,,,0.00,WUHU216HW,2013-04-17 01:22:00,
2013-04-16 18:32:00,80.1,33.9,29.75,NW,315,5.4,12.1,19,0.00,,,0.00,WUHU216HW,2013-04-17 01:32:00,
2013-04-16 18:42:00,79.2,33.0,29.76,WSW,248,4.5,8.9,19,0.00,,,0.00,WUHU216HW,2013-04-17 01:42:00,
2013-04-16 18:52:00,78.3,32.3,29.76,NW,315,7.6,11.0,19,0.00,,,0.00,WUHU216HW,2013-04-17 01:52:00,
2013-04-16 19:02:00,77.8,34.6,29.76,West,270,6.3,11.0,21,0.00,,,0.00,WUHU216HW,2013-04-17 02:02:00,
2013-04-16 19:12:00,77.0,35.0,29.76,WSW,248,7.6,8.5,22,0.00,,,0.00,WUHU216HW,2013-04-17 02:12:00,
2013-04-16 19:22:00,76.5,34.6,29.76,West,270,3.6,7.4,22,0.00,,,0.00,WUHU216HW,2013-04-17 02:22:00,
2013-04-16 19:32:00,76.0,34.1,29.76,NW,315,2.0,3.8,22,0.00,,,0.00,WUHU216HW,2013-04-17 02:32:00,
2013-04-16 19:42:00,75.4,34.8,29.77,NW,315,2.5,4.0,23,0.00,,,0.00,WUHU216HW,2013-04-17 02:42:00,
2013-04-16 19:52:00,74.7,36.2,29.77,NW,315,3.4,7.6,25,0.00,,,0.00,WUHU216HW,2013-04-17 02:52:00,
2013-04-16 20:02:00,74.3,35.8,29.78,SW,225,2.9,4.9,25,0.00,,,0.00,WUHU216HW,2013-04-17 03:02:00,
2013-04-16 20:12:00,73.8,38.4,29.78,NW,315,7.6,7.6,28,0.00,,,0.00,WUHU216HW,2013-04-17 03:12:00,
2013-04-16 20:22:00,73.4,38.2,29.78,North,0,4.0,8.5,28,0.00,,,0.00,WUHU216HW,2013-04-17 03:22:00,
2013-04-16 20:32:00,73.3,39.0,29.78,SW,225,6.5,10.5,29,0.00,,,0.00,WUHU216HW,2013-04-17 03:32:00,
2013-04-16 20:42:00,73.1,38.9,29.79,NW,315,8.7,8.7,29,0.00,,,0.00,WUHU216HW,2013-04-17 03:42:00,
2013-04-16 20:52:00,72.7,38.5,29.79,NW,315,6.5,6.5,29,0.00,,,0.00,WUHU216HW,2013-04-17 03:52:00,
2013-04-16 21:02:00,72.4,38.3,29.80,North,0,3.1,7.6,29,0.00,,,0.00,WUHU216HW,2013-04-17 04:02:00,
2013-04-16 21:12:00,71.8,37.8,29.80,NNW,338,4.0,8.9,29,0.00,,,0.00,WUHU216HW,2013-04-17 04:12:00,
2013-04-16 21:23:00,71.3,37.4,29.80,NW,315,3.4,4.7,29,0.00,,,0.00,WUHU216HW,2013-04-17 04:23:00,
2013-04-16 21:33:00,70.6,33.7,29.80,NW,315,4.5,5.1,26,0.00,,,0.00,WUHU216HW,2013-04-17 04:33:00,
2013-04-16 21:43:00,69.5,31.8,29.81,NNW,338,4.0,7.8,25,0.00,,,0.00,WUHU216HW,2013-04-17 04:43:00,
2013-04-16 21:53:00,68.4,31.8,29.82,NNW,338,2.7,6.9,26,0.00,,,0.00,WUHU216HW,2013-04-17 04:53:00,
2013-04-16 22:03:00,67.9,33.3,29.82,North,0,2.7,4.7,28,0.00,,,0.00,WUHU216HW,2013-04-17 05:03:00,
2013-04-16 22:13:00,67.7,34.2,29.83,NW,315,3.8,7.4,29,0.00,,,0.00,WUHU216HW,2013-04-17 05:13:00,
2013-04-16 22:23:00,67.9,35.3,29.83,NNW,338,2.5,5.6,30,0.00,,,0.00,WUHU216HW,2013-04-17 05:23:00,
2013-04-16 22:33:00,67.5,35.0,29.84,NW,315,2.0,5.6,30,0.00,,,0.00,WUHU216HW,2013-04-17 05:33:00,
2013-04-16 22:43:00,67.1,34.7,29.84,NNW,338,0.9,3.8,30,0.00,,,0.00,WUHU216HW,2013-04-17 05:43:00,
2013-04-16 22:53:00,66.4,34.2,29.84,NNW,338,1.8,3.4,30,0.00,,,0.00,WUHU216HW,2013-04-17 05:53:00,
2013-04-16 23:03:00,65.9,34.4,29.85,NNW,338,2.0,3.8,31,0.00,,,0.00,WUHU216HW,2013-04-17 06:03:00,
2013-04-16 23:13:00,65.5,33.4,29.85,NW,315,3.4,4.5,30,0.00,,,0.00,WUHU216HW,2013-04-17 06:13:00,
2013-04-16 23:23:00,65.2,33.8,29.84,NW,315,1.1,3.8,31,0.00,,,0.00,WUHU216HW,2013-04-17 06:23:00,
2013-04-16 23:33:00,64.8,33.5,29.85,North,0,2.5,2.5,31,0.00,,,0.00,WUHU216HW,2013-04-17 06:33:00,
2013-04-16 23:43:00,64.4,33.8,29.85,NW,315,2.9,3.4,32,0.00,,,0.00,WUHU216HW,2013-04-17 06:43:00,
2013-04-16 23:53:00,64.3,33.7,29.85,NW,315,1.6,2.0,32,0.00,,,0.00,WUHU216HW,2013-04-17 06:53:00,